Time,TemperatureF,DewpointF,PressureIn,WindDirection,WindDirectionDegrees,WindSpeedMPH,WindSpeedGustMPH,Humidity,HourlyPrecipIn,Conditions,Clouds,dailyrainin,SoftwareType,DateUTC
2014-07-23 00:00:00,71.2,68.3,29.97,SE,137,0.0,0.0,90,0.00,n/a,n/a,-99.99,Henriksen +1-Wire,2014-07-23 04:00:00,
2014-07-23 00:10:00,71.2,68.7,29.97,SE,134,0.0,0.0,91,0.00,n/a,n/a,-99.99,Henriksen +1-Wire,2014-07-23 04:10:00,
2014-07-23 00:20:00,71.3,68.7,29.97,SE,137,0.0,0.0,91,0.00,n/a,n/a,-99.99,Henriksen +1-Wire,2014-07-23 04:20:00,
2014-07-23 00:30:00,71.0,68.4,29.97,SE,138,0.0,0.0,91,0.00,n/a,n/a,-99.99,Henriksen +1-Wire,2014-07-23 04:30:00,
2014-07-23 00:40:00,71.1,68.5,29.97,SE,137,0.0,0.0,91,0.00,n/a,n/a,-99.99,Henriksen +1-Wire,2014-07-23 04:40:00,
2014-07-23 00:50:00,71.0,68.4,29.97,SSE,148,0.0,0.0,91,0.00,n/a,n/a,-99.99,Henriksen +1-Wire,2014-07-23 04:50:00,
2014-07-23 01:00:00,70.5,68.0,29.97,SE,134,0.0,0.0,91,0.00,n/a,n/a,-99.99,Henriksen +1-Wire,2014-07-23 05:00:00,
2014-07-23 01:10:00,70.3,68.0,29.97,ESE,122,0.0,0.0,92,0.00,n/a,n/a,-99.99,Henriksen +1-Wire,2014-07-23 05:10:00,
2014-07-23 01:20:00,70.2,68.7,29.98,ESE,122,0.0,0.0,94,0.00,n/a,n/a,-99.99,Henriksen +1-Wire,2014-07-23 05:20:00,
2014-07-23 01:30:00,69.8,67.7,29.98,SE,129,0.0,0.0,92,0.00,n/a,n/a,-99.99,Henriksen +1-Wire,2014-07-23 05:30:00,
2014-07-23 01:40:00,69.7,67.7,29.97,ESE,120,0.0,0.0,93,0.00,n/a,n/a,-99.99,Henriksen +1-Wire,2014-07-23 05:40:00,
2014-07-23 01:50:00,69.6,67.5,29.97,ESE,107,0.0,0.0,93,0.00,n/a,n/a,-99.99,Henriksen +1-Wire,2014-07-23 05:50:00,
2014-07-23 02:00:00,69.6,68.5,29.97,East,94,0.0,0.0,96,0.00,n/a,n/a,-99.99,Henriksen +1-Wire,2014-07-23 06:00:00,
2014-07-23 02:10:00,69.8,68.4,29.97,ESE,116,0.0,0.0,94,0.00,n/a,n/a,-99.99,Henriksen +1-Wire,2014-07-23 06:10:00,
2014-07-23 02:20:00,69.8,68.6,29.97,SE,130,0.0,0.0,96,0.00,n/a,n/a,-99.99,Henriksen +1-Wire,2014-07-23 06:20:00,
2014-07-23 02:30:00,69.3,67.9,29.97,East,94,0.0,0.0,95,0.00,n/a,n/a,-99.99,Henriksen +1-Wire,2014-07-23 06:30:00,
2014-07-23 02:40:00,69.0,67.5,29.98,NW,316,0.0,0.0,95,0.00,n/a,n/a,-99.99,Henriksen +1-Wire,2014-07-23 06:40:00,
2014-07-23 02:50:00,69.2,67.7,29.97,WNW,285,0.0,0.0,94,0.00,n/a,n/a,-99.99,Henriksen +1-Wire,2014-07-23 06:50:00,
2014-07-23 03:00:00,69.3,68.0,29.97,SSE,159,0.0,0.0,95,0.00,n/a,n/a,-99.99,Henriksen +1-Wire,2014-07-23 07:00:00,
2014-07-23 03:10:00,69.5,68.5,29.96,SE,130,0.0,0.0,96,0.00,n/a,n/a,-99.99,Henriksen +1-Wire,2014-07-23 07:10:00,
2014-07-23 03:20:00,69.6,68.5,29.95,SE,133,0.0,0.0,96,0.00,n/a,n/a,-99.99,Henriksen +1-Wire,2014-07-23 07:20:00,
2014-07-23 03:30:00,69.4,68.3,29.94,SE,136,0.0,0.0,96,0.00,n/a,n/a,-99.99,Henriksen +1-Wire,2014-07-23 07:30:00,
2014-07-23 03:40:00,69.2,68.1,29.94,SE,144,0.0,0.0,96,0.00,n/a,n/a,-99.99,Henriksen +1-Wire,2014-07-23 07:40:00,
2014-07-23 03:50:00,69.8,68.9,29.94,SSE,147,0.0,0.0,96,0.00,n/a,n/a,-99.99,Henriksen +1-Wire,2014-07-23 07:50:00,
2014-07-23 04:00:00,69.7,68.7,29.94,South,171,0.0,0.0,96,0.00,n/a,n/a,-99.99,Henriksen +1-Wire,2014-07-23 08:00:00,
2014-07-23 04:10:00,69.8,68.6,29.94,WNW,282,0.0,0.0,96,0.00,n/a,n/a,-99.99,Henriksen +1-Wire,2014-07-23 08:10:00,
2014-07-23 04:20:00,69.9,68.9,29.94,SSE,147,0.0,0.0,96,0.00,n/a,n/a,-99.99,Henriksen +1-Wire,2014-07-23 08:20:00,
2014-07-23 04:30:00,69.7,68.9,29.94,SSE,148,0.0,0.0,97,0.00,n/a,n/a,-99.99,Henriksen +1-Wire,2014-07-23 08:30:00,
2014-07-23 04:40:00,69.6,68.9,29.96,NE,42,0.0,0.0,97,0.00,n/a,n/a,-99.99,Henriksen +1-Wire,2014-07-23 08:40:00,
2014-07-23 04:50:00,69.6,68.7,29.96,East,92,0.0,0.0,96,0.00,n/a,n/a,-99.99,Henriksen +1-Wire,2014-07-23 08:50:00,
2014-07-23 05:00:00,69.7,68.7,29.97,ESE,106,0.0,0.0,96,0.00,n/a,n/a,-99.99,Henriksen +1-Wire,2014-07-23 09:00:00,
2014-07-23 05:10:00,69.9,68.9,29.97,East,90,0.0,0.0,96,0.00,n/a,n/a,-99.99,Henriksen +1-Wire,2014-07-23 09:10:00,
2014-07-23 05:20:00,69.9,69.0,29.97,SE,144,0.0,0.0,97,0.00,n/a,n/a,-99.99,Henriksen +1-Wire,2014-07-23 09:20:00,
2014-07-23 05:30:00,69.9,69.3,29.97,SSE,150,0.0,0.0,97,0.00,n/a,n/a,-99.99,Henriksen +1-Wire,2014-07-23 09:30:00,
2014-07-23 05:40:00,70.2,69.3,29.97,SE,133,0.0,2.1,96,0.00,n/a,n/a,-99.99,Henriksen +1-Wire,2014-07-23 09:40:00,
2014-07-23 05:50:00,71.1,70.5,29.97,West,272,0.0,0.4,98,0.00,n/a,n/a,-99.99,Henriksen +1-Wire,2014-07-23 09:50:00,
2014-07-23 06:00:00,71.6,71.0,29.98,WNW,301,0.1,1.5,98,0.00,n/a,n/a,-99.99,Henriksen +1-Wire,2014-07-23 10:00:00,
2014-07-23 06:10:00,72.2,71.6,29.99,NW,312,0.1,1.5,97,0.00,n/a,n/a,-99.99,Henriksen +1-Wire,2014-07-23 10:10:00,
2014-07-23 06:20:00,72.5,72.1,30.01,NW,315,3.0,7.0,98,0.00,n/a,n/a,-99.99,Henriksen +1-Wire,2014-07-23 10:20:00,
2014-07-23 06:30:00,72.6,71.8,30.02,NW,312,7.2,16.0,97,0.00,n/a,n/a,-99.99,Henriksen +1-Wire,2014-07-23 10:30:00,
2014-07-23 06:40:00,72.6,71.2,30.02,NW,314,4.9,14.5,95,0.00,n/a,n/a,-99.99,Henriksen +1-Wire,2014-07-23 10:40:00,
2014-07-23 06:50:00,72.0,70.8,30.03,NW,322,5.3,10.4,96,0.00,n/a,n/a,-99.99,Henriksen +1-Wire,2014-07-23 10:50:00,
2014-07-23 07:00:00,70.7,69.8,30.04,NNW,346,4.9,17.2,96,0.00,n/a,n/a,-99.99,Henriksen +1-Wire,2014-07-23 11:00:00,
2014-07-23 07:10:00,69.4,68.7,30.05,North,5,8.7,12.4,97,0.04,n/a,n/a,-99.99,Henriksen +1-Wire,2014-07-23 11:10:00,
2014-07-23 07:20:00,68.9,68.6,30.04,NNE,27,6.4,12.8,98,0.11,n/a,n/a,-99.99,Henriksen +1-Wire,2014-07-23 11:20:00,
2014-07-23 07:30:00,68.3,68.2,30.03,ENE,63,3.0,14.1,99,0.17,n/a,n/a,-99.99,Henriksen +1-Wire,2014-07-23 11:30:00,
2014-07-23 07:40:00,68.2,68.1,30.02,East,101,4.6,10.0,99,0.21,n/a,n/a,-99.99,Henriksen +1-Wire,2014-07-23 11:40:00,
2014-07-23 07:50:00,67.9,67.8,30.01,ESE,113,4.3,8.7,99,0.22,n/a,n/a,-99.99,Henriksen +1-Wire,2014-07-23 11:50:00,
2014-07-23 08:00:00,67.8,67.7,30.01,ESE,116,2.6,6.2,99,0.23,n/a,n/a,-99.99,Henriksen +1-Wire,2014-07-23 12:00:00,
2014-07-23 08:10:00,67.8,67.8,30.02,ESE,109,3.4,6.6,99,0.21,n/a,n/a,-99.99,Henriksen +1-Wire,2014-07-23 12:10:00,
2014-07-23 08:20:00,68.0,67.9,30.00,ESE,115,3.3,6.9,99,0.13,n/a,n/a,-99.99,Henriksen +1-Wire,2014-07-23 12:20:00,
2014-07-23 08:30:00,68.2,68.0,29.99,SE,129,2.6,6.2,99,0.07,n/a,n/a,-99.99,Henriksen +1-Wire,2014-07-23 12:30:00,
2014-07-23 08:40:00,68.9,68.6,29.99,SSE,154,2.7,5.2,98,0.03,n/a,n/a,-99.99,Henriksen +1-Wire,2014-07-23 12:40:00,
2014-07-23 08:50:00,69.1,68.6,29.98,SE,141,1.5,3.9,98,0.03,n/a,n/a,-99.99,Henriksen +1-Wire,2014-07-23 12:50:00,
2014-07-23 09:00:00,69.1,68.8,29.98,South,178,3.1,5.1,98,0.02,n/a,n/a,-99.99,Henriksen +1-Wire,2014-07-23 13:00:00,
2014-07-23 09:10:00,68.2,68.1,29.98,SSE,147,6.6,12.3,99,0.03,n/a,n/a,-99.99,Henriksen +1-Wire,2014-07-23 13:10:00,
2014-07-23 09:20:00,68.1,68.1,29.96,SE,142,7.3,11.8,99,0.04,n/a,n/a,-99.99,Henriksen +1-Wire,2014-07-23 13:20:00,
2014-07-23 09:30:00,68.2,68.1,29.93,SE,142,7.4,15.3,100,0.04,n/a,n/a,-99.99,Henriksen +1-Wire,2014-07-23 13:30:00,